sat.trackr.live / text

‹ back to catalog

LEMUR-2-CLARA

NORAD 68483 · 2026-067BV

PAYLOAD ACTIVE UNKNOWN

§ Identity

Operator
Country
LUXE
Launch date
2026-03-30
Launch site
AFWTR
Launch vehicle
Mass (kg)
RCS (m²)

External: N2YO · Heavens-Above · Gunter

§ Orbital elements

Epoch: 2026-05-24T19:35:25.873152Z

Period
96.48 min
Inclination
97.7623°
Eccentricity
0.0003861
Mean motion
14.92537643 rev/d
Perigee alt
587.3 km
Apogee alt
592.7 km
Semi-major
6,968.2 km
B*
3.8676e-4
RAAN
103.5169°
Arg perigee
33.8545°
Mean anomaly
326.2920°
Rev number
824

§ Raw data

LEMUR-2-CLARA1 68483U 26067BV  26144.81627168  .00003918  00000+0  38676-3 0  99992 68483  97.7623 103.5169 0003861  33.8545 326.2920 14.92537643  8248

JSON: /api/v1/satellites/68483 · /tle

For live sub-satellite position, see the globe view (requires WebGL).

§ Visibility from observer

Set your observer location to see the next 7 days of passes ≥ 10°. The values pass through the URL so the page stays shareable.

No JS? Fill the form by hand. The geolocation button needs JavaScript.